When you browse on this site, cookies collect data to enhance your experience and personalize the content and advertising you see.
Visit our Privacy Policy to learn more. By continuing to use the site, you agree to this use of cookies and data.
  • en France
  • Liste des pays
  • À 7 jours
  • Température de l'eau
  • Carte météo
  • Widgets météo
  • user-avatar
    Se connecter

    Météo par heure à Hérât

    Ce jour, 23 Août, Vendredi

    Heure Température Précipitation Vent Pression Humidité
    00:00 +24°C° 0 mm 7 m/s 677 mmHg 25%
    01:00 +24°C° 0 mm 7 m/s 677 mmHg 27%
    02:00 +23°C° 0 mm 6 m/s 677 mmHg 28%
    03:00 +23°C° 0 mm 6 m/s 677 mmHg 29%
    04:00 +22°C° 0 mm 6 m/s 677 mmHg 29%
    05:00 +23°C° 0 mm 5 m/s 677 mmHg 27%
    06:00 +26°C° 0 mm 5 m/s 678 mmHg 25%
    07:00 +27°C° 0 mm 5 m/s 678 mmHg 23%
    08:00 +29°C° 0 mm 7 m/s 679 mmHg 20%
    09:00 +33°C° 0 mm 8 m/s 679 mmHg 16%
    10:00 +36°C° 0 mm 10 m/s 680 mmHg 13%
    11:00 +37°C° 0 mm 11 m/s 679 mmHg 13%
    12:00 +38°C° 0 mm 11 m/s 679 mmHg 12%
    13:00 +39°C° 0 mm 11 m/s 678 mmHg 11%
    14:00 +38°C° 0 mm 12 m/s 678 mmHg 12%
    15:00 +38°C° 0 mm 13 m/s 678 mmHg 12%
    16:00 +38°C° 0 mm 14 m/s 678 mmHg 12%
    17:00 +36°C° 0 mm 13 m/s 678 mmHg 14%
    18:00 +33°C° 0 mm 12 m/s 678 mmHg 15%
    19:00 +32°C° 0 mm 12 m/s 678 mmHg 16%
    20:00 +31°C° 0 mm 11 m/s 678 mmHg 17%
    21:00 +29°C° 0 mm 11 m/s 678 mmHg 19%
    22:00 +28°C° 0 mm 10 m/s 678 mmHg 20%
    23:00 +27°C° 0 mm 10 m/s 678 mmHg 21%

    Demain, 24 Août, Samedi

    Heure Température Précipitation Vent Pression Humidité
    00:00 +26°C° 0 mm 10 m/s 678 mmHg 21%
    01:00 +26°C° 0 mm 9 m/s 678 mmHg 22%
    02:00 +24°C° 0 mm 9 m/s 677 mmHg 23%
    03:00 +24°C° 0 mm 8 m/s 677 mmHg 24%
    04:00 +23°C° 0 mm 8 m/s 677 mmHg 25%
    05:00 +24°C° 0 mm 8 m/s 678 mmHg 23%
    06:00 +27°C° 0 mm 9 m/s 678 mmHg 21%
    07:00 +28°C° 0 mm 9 m/s 679 mmHg 19%
    08:00 +31°C° 0 mm 9 m/s 679 mmHg 17%
    09:00 +32°C° 0 mm 9 m/s 679 mmHg 15%
    10:00 +34°C° 0 mm 9 m/s 679 mmHg 13%
    11:00 +35°C° 0 mm 9 m/s 679 mmHg 12%
    12:00 +37°C° 0 mm 9 m/s 679 mmHg 12%
    13:00 +37°C° 0 mm 10 m/s 679 mmHg 11%
    14:00 +37°C° 0 mm 11 m/s 678 mmHg 11%
    15:00 +37°C° 0 mm 12 m/s 678 mmHg 10%
    16:00 +36°C° 0 mm 13 m/s 678 mmHg 10%
    17:00 +33°C° 0 mm 13 m/s 678 mmHg 11%
    18:00 +31°C° 0 mm 12 m/s 678 mmHg 13%
    19:00 +28°C° 0 mm 12 m/s 677 mmHg 14%
    20:00 +27°C° 0 mm 10 m/s 677 mmHg 15%
    21:00 +24°C° 0 mm 8 m/s 678 mmHg 16%
    22:00 +23°C° 0 mm 6 m/s 678 mmHg 17%
    23:00 +22°C° 0 mm 6 m/s 677 mmHg 18%

    Après-demain, 25 Août, Dimanche

    Heure Température Précipitation Vent Pression Humidité
    00:00 +21°C° 0 mm 5 m/s 677 mmHg 19%
    01:00 +21°C° 0 mm 4 m/s 677 mmHg 20%
    02:00 +20°C° 0 mm 4 m/s 676 mmHg 21%
    03:00 +19°C° 0 mm 4 m/s 676 mmHg 22%
    04:00 +19°C° 0 mm 4 m/s 675 mmHg 23%
    05:00 +20°C° 0 mm 4 m/s 676 mmHg 21%
    06:00 +22°C° 0 mm 4 m/s 677 mmHg 19%
    07:00 +25°C° 0 mm 4 m/s 677 mmHg 17%
    08:00 +27°C° 0 mm 5 m/s 678 mmHg 15%
    09:00 +30°C° 0 mm 6 m/s 678 mmHg 13%
    10:00 +33°C° 0 mm 7 m/s 678 mmHg 11%
    11:00 +34°C° 0 mm 7 m/s 678 mmHg 10%
    12:00 +35°C° 0 mm 8 m/s 678 mmHg 10%
    13:00 +37°C° 0 mm 8 m/s 677 mmHg 9%
    14:00 +37°C° 0 mm 9 m/s 677 mmHg 9%
    15:00 +37°C° 0 mm 9 m/s 677 mmHg 9%
    16:00 +37°C° 0 mm 10 m/s 677 mmHg 10%
    17:00 +34°C° 0 mm 10 m/s 677 mmHg 11%
    18:00 +32°C° 0 mm 9 m/s 677 mmHg 13%
    19:00 +28°C° 0 mm 9 m/s 676 mmHg 15%
    20:00 +28°C° 0 mm 9 m/s 677 mmHg 16%
    21:00 +27°C° 0 mm 8 m/s 677 mmHg 17%
    22:00 +26°C° 0 mm 8 m/s 677 mmHg 19%
    23:00 +24°C° 0 mm 7 m/s 677 mmHg 19%

    26 Août, Lundi

    Heure Température Précipitation Vent Pression Humidité
    00:00 +24°C° 0 mm 6 m/s 677 mmHg 19%
    01:00 +23°C° 0 mm 6 m/s 677 mmHg 20%
    02:00 +22°C° 0 mm 6 m/s 676 mmHg 21%
    03:00 +22°C° 0 mm 5 m/s 676 mmHg 21%
    04:00 +21°C° 0 mm 5 m/s 676 mmHg 22%
    05:00 +23°C° 0 mm 5 m/s 677 mmHg 20%
    06:00 +25°C° 0 mm 5 m/s 677 mmHg 18%
    07:00 +27°C° 0 mm 6 m/s 678 mmHg 16%
    08:00 +29°C° 0 mm 6 m/s 678 mmHg 14%
    09:00 +32°C° 0 mm 7 m/s 679 mmHg 12%
    10:00 +34°C° 0 mm 8 m/s 679 mmHg 10%
    11:00 +35°C° 0 mm 8 m/s 679 mmHg 9%
    12:00 +37°C° 0 mm 8 m/s 679 mmHg 9%
    13:00 +38°C° 0 mm 9 m/s 678 mmHg 8%
    14:00 +38°C° 0 mm 10 m/s 678 mmHg 8%
    15:00 +37°C° 0 mm 11 m/s 678 mmHg 8%
    16:00 +37°C° 0 mm 12 m/s 678 mmHg 8%
    17:00 +34°C° 0 mm 11 m/s 678 mmHg 9%
    18:00 +32°C° 0 mm 10 m/s 678 mmHg 10%
    19:00 +28°C° 0 mm 10 m/s 678 mmHg 11%
    20:00 +27°C° 0 mm 9 m/s 678 mmHg 12%
    21:00 +26°C° 0 mm 8 m/s 678 mmHg 13%
    22:00 +24°C° 0 mm 7 m/s 678 mmHg 14%
    23:00 +23°C° 0 mm 6 m/s 678 mmHg 14%

    27 Août, Mardi

    Heure Température Précipitation Vent Pression Humidité
    00:00 +22°C° 0 mm 5 m/s 677 mmHg 15%
    01:00 +21°C° 0 mm 4 m/s 677 mmHg 16%
    02:00 +20°C° 0 mm 3 m/s 677 mmHg 17%
    03:00 +19°C° 0 mm 3 m/s 677 mmHg 18%
    04:00 +19°C° 0 mm 3 m/s 677 mmHg 19%
    05:00 +21°C° 0 mm 3 m/s 677 mmHg 17%
    06:00 +23°C° 0 mm 4 m/s 678 mmHg 15%
    07:00 +26°C° 0 mm 4 m/s 679 mmHg 13%
    08:00 +28°C° 0 mm 6 m/s 679 mmHg 12%
    09:00 +30°C° 0 mm 7 m/s 679 mmHg 10%
    10:00 +34°C° 0 mm 9 m/s 680 mmHg 8%
    11:00 +36°C° 0 mm 10 m/s 679 mmHg 8%
    12:00 +37°C° 0 mm 11 m/s 679 mmHg 8%
    13:00 +38°C° 0 mm 13 m/s 679 mmHg 7%
    14:00 +37°C° 0 mm 13 m/s 678 mmHg 7%
    15:00 +37°C° 0 mm 13 m/s 678 mmHg 8%
    16:00 +37°C° 0 mm 13 m/s 677 mmHg 8%
    17:00 +34°C° 0 mm 12 m/s 678 mmHg 9%
    18:00 +32°C° 0 mm 11 m/s 678 mmHg 10%
    19:00 +29°C° 0 mm 10 m/s 678 mmHg 11%
    20:00 +28°C° 0 mm 10 m/s 678 mmHg 13%
    21:00 +27°C° 0 mm 9 m/s 678 mmHg 14%
    22:00 +26°C° 0 mm 8 m/s 678 mmHg 15%
    23:00 +26°C° 0 mm 8 m/s 678 mmHg 16%

    28 Août, Mercredi

    Heure Température Précipitation Vent Pression Humidité
    00:00 +24°C° 0 mm 8 m/s 677 mmHg 17%
    01:00 +23°C° 0 mm 7 m/s 677 mmHg 18%
    02:00 +22°C° 0 mm 7 m/s 677 mmHg 19%
    03:00 +22°C° 0 mm 6 m/s 676 mmHg 20%
    04:00 +21°C° 0 mm 5 m/s 676 mmHg 21%
    05:00 +22°C° 0 mm 5 m/s 677 mmHg 19%
    06:00 +25°C° 0 mm 5 m/s 677 mmHg 17%
    07:00 +26°C° 0 mm 4 m/s 678 mmHg 15%
    08:00 +29°C° 0 mm 6 m/s 678 mmHg 13%
    09:00 +32°C° 0 mm 7 m/s 678 mmHg 11%
    10:00 +35°C° 0 mm 8 m/s 679 mmHg 9%
    11:00 +37°C° 0 mm 9 m/s 678 mmHg 9%
    12:00 +38°C° 0 mm 9 m/s 678 mmHg 8%
    13:00 +39°C° 0 mm 10 m/s 678 mmHg 8%
    14:00 +39°C° 0 mm 10 m/s 678 mmHg 8%
    15:00 +38°C° 0 mm 11 m/s 677 mmHg 8%
    16:00 +38°C° 0 mm 11 m/s 677 mmHg 9%
    17:00 +36°C° 0 mm 10 m/s 677 mmHg 10%
    18:00 +33°C° 0 mm 9 m/s 677 mmHg 12%
    19:00 +31°C° 0 mm 9 m/s 677 mmHg 14%
    20:00 +28°C° 0 mm 8 m/s 677 mmHg 16%
    21:00 +27°C° 0 mm 7 m/s 677 mmHg 17%
    22:00 +26°C° 0 mm 6 m/s 678 mmHg 19%
    23:00 +25°C° 0 mm 5 m/s 677 mmHg 21%
    Voir plus